RH
11 14 16 13 12 17 16 15 17 16 10 10 13 16 20 18 13 24 55 83 47 39 26 24 27 33 47 61 75 71 64 71 76 73 76 69 71 71 64 76 62 68 66 72
11 15 12 10 10 15 14 12 10 13 12 11 12 12 12 12 14 15 42 67 57 46 38 26 28 28 32 54 67 69 64 74 77 73 71 73 78 69 82 76 66 67 67 72
11 11 9 10 11 15 14 10 12 19 19 10 11 14 14 12 13 14 15 40 48 44 23 24 28 30 32 42 51 62 71 77 73 75 77 74 81 85 80 66 69 65 66 70
8 8 9 10 11 21 18 9 10 12 12 14 12 21 24 42 47 21 16 16 19 21 20 20 25 27 31 39 47 58 64 72 70 70 77 79 88 88 68 67 69 67 70 74
9 8 9 10 10 15 12 11 12 11 10 10 13 14 17 24 42 43 18 17 16 17 18 21 29 29 32 39 44 55 66 73 73 74 81 81 85 85 66 66 74 79 79 74
7 6 7 8 8 8 9 15 12 10 10 13 10 15 21 26 50 52 21 16 17 15 18 18 22 27 38 40 46 54 70 78 74 74 75 78 79 82 88 87 73 70 66 71
8 8 6 6 10 10 10 11 16 16 14 19 18 29 18 15 15 12 15 16 17 14 15 17 21 26 42 45 46 55 72 79 75 72 71 74 78 77 76 74 70 72 65 58
11 10 7 7 10 12 11 10 14 23 49 42 21 39 23 10 9 10 12 15 16 16 18 19 23 32 37 43 48 56 70 75 72 70 77 77 75 70 76 81 68 66 63 61
10 10 6 8 8 9 13 14 8 11 22 22 16 15 14 11 11 12 12 16 17 17 19 19 23 29 34 44 51 57 66 71 70 67 80 77 73 71 72 74 71 61 68 54
7 10 7 7 8 8 11 11 12 12 33 31 17 20 26 21 17 12 14 17 17 20 19 20 22 30 35 38 44 51 61 67 66 68 69 67 70 68 67 65 65 67 70 69
5 7 9 7 10 10 10 11 16 11 12 14 15 20 19 27 19 16 14 17 17 21 19 20 24 30 33 40 46 50 55 59 65 61 69 71 65 59 61 60 63 64 68 71
5 6 10 9 7 7 8 8 11 14 19 10 10 21 14 16 13 13 14 16 17 21 20 24 26 33 38 46 50 54 59 54 51 63 69 65 60 57 53 56 57 63 66 71
5 7 11 12 10 8 9 7 7 5 6 17 13 25 40 28 28 19 17 17 28 26 26 28 36 45 46 49 61 60 56 52 50 56 49 60 58 58 56 58 65 68 78 78
16 4 9 18 42 14 10 8 8 8 10 18 23 37 45 35 36 32 18 20 25 29 34 38 42 47 52 60 66 66 63 57 58 53 52 64 62 63 66 73 77 79 78 80
5 8 8 13 18 13 8 8 8 10 10 17 23 34 48 54 46 35 17 21 24 30 35 43 42 52 58 64 65 64 63 68 66 65 70 70 69 70 73 80 81 83 80 81
5 12 10 12 12 12 12 7 8 10 10 13 14 39 35 43 39 42 21 21 26 36 39 44 51 56 57 62 68 63 70 68 68 67 66 70 72 71 74 79 84 82 81 81
7 8 14 18 16 17 18 11 10 13 16 12 13 24 38 35 49 36 23 23 27 37 48 51 49 49 61 68 63 67 75 73 75 71 69 70 67 68 80 84 82 82 82 80
10 13 12 16 31 32 11 8 7 14 17 12 8 20 24 65 72 21 19 23 28 38 52 54 54 52 53 52 48 60 63 71 70 69 61 68 78 83 84 81 84 84 86 84
6 10 13 17 17 19 14 9 8 11 14 7 7 9 21 23 25 27 22 23 36 49 60 54 41 41 53 57 64 71 80 88 67 74 82 87 85 82 80 81 84 83 82 81
7 8 12 17 20 21 15 13 11 11 21 9 11 14 19 22 29 40 41 54 57 52 55 49 39 47 48 54 58 80 88 90 88 96 95 85 84 84 81 81 83 81 77 74
15 15 16 16 18 19 50 38 13 30 33 18 16 19 24 44 42 53 54 53 50 53 48 43 51 62 64 66 72 81 85 84 93 90 79 78 77 79 76 79 79 80 79 80
20 16 14 16 21 40 33 23 17 37 33 21 24 38 43 49 53 54 55 58 60 60 54 58 68 70 70 71 75 79 81 74 79 77 73 74 76 62 60 79 80 79 82 78
31 29 36 48 51 63 49 43 31 23 29 25 39 37 40 44 50 52 57 56 55 56 59 58 61 63 66 67 72 76 78 73 71 69 68 67 73 66 70 77 78 64 67 57
49 47 41 52 64 62 42 37 27 19 22 25 30 33 36 44 47 51 53 53 55 55 57 56 62 67 72 70 70 72 70 68 65 67 65 64 71 70 68 58 56 55 55 53
32 33 29 38 56 50 46 40 23 19 19 24 28 29 32 35 39 44 49 54 52 54 57 59 64 66 66 64 65 60 66 60 63 61 59 61 57 63 62 66 64 57 68 61
23 37 32 62 39 42 38 26 18 19 20 24 28 30 28 29 35 39 44 50 56 60 65 64 66 63 60 59 61 65 62 64 61 58 53 53 54 50 50 54 61 74 66 78
Wind_Speed
18 15 17 21 20 9 17 14 22 19 7 3 11 10 19 18 3 16 19 21 15 23 9 15 12 17 16 17 12 9 10 8 6 5 5 5 7 5 3 6 3 5 5 3
18 19 21 22 19 5 18 12 9 8 6 7 9 6 12 9 6 6 25 27 19 17 15 14 11 11 11 21 19 16 14 10 6 3 5 3 3 7 2 1 3 3 3 3
20 20 20 21 17 16 14 14 5 8 14 9 10 11 5 1 1 7 7 27 18 21 15 17 15 13 12 10 11 13 13 9 8 6 4 1 4 2 2 3 3 3 2 3
20 22 20 20 22 10 21 16 5 12 10 10 8 10 14 15 11 16 8 8 16 17 13 16 17 15 14 12 10 10 8 9 8 6 3 4 3 3 4 3 3 1 6 7
19 21 22 17 22 28 8 6 9 17 10 16 14 10 6 13 6 21 10 10 9 15 14 13 13 14 15 14 10 8 8 8 7 7 4 2 3 5 3 3 4 6 4 7
21 17 16 22 21 19 14 17 15 14 13 14 15 12 10 10 19 30 20 12 8 10 17 11 17 15 16 12 12 11 10 8 6 7 6 3 3 3 4 5 4 4 2 1
16 19 18 22 17 13 18 16 9 12 13 5 16 10 7 17 17 7 11 9 11 7 13 11 12 11 14 13 12 10 10 8 7 6 6 5 4 2 2 2 3 6 4 6
16 15 22 18 17 19 22 15 14 12 7 14 6 7 6 12 10 7 8 13 12 9 13 14 12 11 10 13 12 12 10 8 7 6 6 4 3 3 1 5 4 4 4 5
15 16 20 14 17 22 8 14 18 13 3 12 15 11 18 12 8 7 10 17 13 10 11 15 15 13 11 11 12 12 10 8 7 7 6 5 2 1 4 4 4 5 6 5
20 14 16 18 19 19 17 16 11 11 11 7 15 7 9 8 6 4 10 15 15 14 11 12 11 14 12 12 11 11 10 8 8 10 7 6 4 2 2 1 3 3 3 3
21 19 13 19 18 19 16 13 6 18 14 6 6 9 5 3 5 9 8 13 16 15 11 13 12 11 11 11 10 11 10 10 9 8 6 6 4 5 3 3 4 3 3 4
20 15 15 17 22 20 17 20 23 16 12 12 8 10 14 3 5 9 10 10 18 16 13 12 14 12 11 9 10 11 10 10 8 8 6 4 3 2 4 2 2 4 1 4
14 17 15 15 16 18 18 20 22 17 17 8 4 7 11 22 23 15 8 12 13 15 14 13 12 11 11 9 7 7 8 7 11 7 6 6 4 4 1 1 4 5 6 6
12 18 20 8 15 15 19 23 18 18 12 9 8 11 3 11 18 17 9 11 16 13 16 14 13 10 9 9 7 8 6 7 9 7 7 6 4 4 5 5 7 7 6 6
16 20 21 8 21 24 21 23 18 9 16 6 11 10 7 9 11 18 10 11 10 13 17 15 14 12 10 10 8 8 7 8 9 4 7 5 4 0 3 5 6 6 6 6
18 18 19 10 6 16 19 11 6 7 18 11 7 22 16 13 24 17 9 7 8 14 13 13 13 14 11 11 7 8 7 8 8 6 5 5 3 1 2 4 5 6 7 6
18 15 16 10 1 11 21 10 11 1 13 11 4 16 19 9 17 26 9 8 9 12 16 13 12 10 8 9 9 9 6 7 5 5 5 4 2 1 4 5 5 4 6 7
17 17 13 14 21 25 14 13 18 19 15 28 4 20 24 30 40 9 10 9 11 13 14 10 10 6 12 12 12 10 10 8 4 2 2 1 5 6 6 4 6 7 7 7
20 17 13 14 12 9 18 16 4 4 9 6 2 7 20 17 15 10 10 9 12 15 11 9 10 8 7 8 8 12 13 16 6 6 7 6 7 7 7 6 7 8 8 8
17 18 13 13 15 13 4 19 7 17 4 8 11 12 17 8 5 9 18 19 16 14 8 8 13 12 11 9 11 14 11 13 11 9 4 4 6 7 8 8 8 7 7 7
15 15 16 15 5 3 1 23 3 6 5 8 11 10 12 11 12 15 15 15 14 12 9 11 10 11 12 9 12 14 10 9 6 5 2 7 7 5 6 7 6 6 5 6
11 10 11 16 13 10 9 27 3 7 5 3 13 16 19 20 18 15 14 14 13 12 9 12 12 10 11 9 11 11 10 7 5 5 8 6 3 6 5 4 4 5 4 7
1 11 7 7 4 9 12 17 13 22 14 4 13 13 17 18 17 16 14 14 14 14 12 11 10 10 9 9 9 10 7 5 4 6 4 2 6 3 3 4 2 4 8 8
7 7 7 6 4 5 9 9 8 9 8 10 15 12 14 17 17 15 14 13 13 13 12 13 10 9 10 9 9 7 5 4 5 4 4 2 5 1 1 3 5 5 7 7
6 7 1 9 8 7 12 15 7 5 4 13 16 14 14 14 15 15 13 13 12 10 10 9 10 10 10 8 8 7 6 3 5 4 4 3 3 2 2 3 3 5 5 3
3 13 8 6 16 18 13 13 5 5 4 11 16 17 16 13 12 13 12 10 10 11 9 9 11 11 10 9 8 6 5 4 3 2 3 2 3 3 3 3 5 7 6 7
Wind_Direction
218 229 233 237 241 109 262 199 205 233 91 252 284 153 173 221 194 139 140 105 353 300 186 161 179 158 152 152 162 178 188 185 216 196 187 206 211 223 229 335 63 355 348 320
230 221 235 242 251 10 241 258 263 48 340 245 262 240 206 157 198 226 160 152 185 215 242 142 178 185 173 155 169 179 191 190 196 175 224 267 210 226 109 61 52 349 328 2
225 227 229 242 235 232 252 257 112 132 244 248 259 261 299 337 18 219 231 159 173 188 160 161 173 187 173 158 159 171 180 172 169 240 200 197 348 25 84 197 190 190 287 296
226 242 221 230 250 48 275 232 357 204 240 256 197 261 237 100 219 267 210 194 185 148 158 184 164 177 167 152 150 158 167 150 163 182 182 231 240 260 207 229 129 189 210 233
230 229 246 214 238 187 231 43 246 284 258 260 205 249 151 128 28 328 260 198 227 147 157 140 160 167 154 141 143 137 158 155 166 164 254 160 264 271 243 258 131 224 196 233
240 229 233 252 243 241 221 181 238 255 252 256 243 204 171 164 169 215 235 197 196 158 141 160 136 141 129 142 142 145 151 157 184 180 176 201 273 286 342 353 319 311 311 54
229 248 241 237 249 235 237 251 238 238 229 58 39 28 282 165 196 173 158 180 152 142 122 116 111 113 128 141 143 141 145 159 171 169 168 165 191 216 260 241 350 343 341 26
217 213 243 217 231 232 226 231 246 240 66 308 133 209 248 183 132 149 151 146 146 138 125 133 123 121 140 143 153 143 149 149 159 174 143 127 139 223 33 52 19 323 20 18
209 228 212 222 224 236 262 260 255 264 194 252 251 255 234 134 135 156 157 142 147 148 123 133 144 142 155 150 152 143 154 158 170 155 112 106 157 35 49 39 7 23 33 1
257 262 205 189 215 231 211 251 252 273 169 221 230 131 131 132 164 182 158 151 149 135 146 137 148 146 146 155 152 147 150 167 170 134 139 156 152 71 103 108 64 46 46 6
252 263 252 204 200 219 222 232 267 261 272 292 248 115 81 88 324 158 167 165 153 141 160 143 132 122 141 136 145 144 165 158 163 129 167 128 173 116 240 153 122 101 52 336
223 254 255 250 194 212 236 217 214 239 216 255 278 146 39 328 261 159 170 180 155 145 157 136 131 133 126 133 142 163 184 142 131 131 120 172 128 106 127 30 35 85 44 346
206 240 261 246 239 185 225 241 229 243 256 264 322 104 344 354 337 331 157 160 146 145 139 133 124 124 133 144 143 120 118 150 127 138 167 136 150 198 236 101 56 10 30 354
266 232 239 240 230 287 210 237 242 254 256 82 76 119 88 260 328 319 147 157 151 157 141 132 132 131 134 118 119 129 153 137 136 171 174 140 104 37 16 17 16 3 348 353
230 242 248 175 182 269 230 216 226 276 281 89 169 130 116 101 287 276 263 162 169 155 135 140 148 139 135 136 155 157 172 150 139 191 131 137 148 155 14 14 1 341 333 328
215 233 241 258 210 271 304 201 255 246 298 113 150 120 169 202 200 272 218 152 160 130 133 137 139 145 155 153 165 177 175 148 144 176 147 134 170 29 344 350 344 324 317 320
216 224 232 216 165 248 264 210 221 180 319 289 181 155 170 166 306 260 161 167 153 139 143 158 147 150 145 144 168 179 157 147 153 165 166 172 213 309 12 340 313 340 344 337
205 219 229 244 154 233 228 248 181 148 175 255 91 137 155 150 218 148 153 166 155 143 136 145 132 156 168 171 172 168 127 110 90 294 277 47 18 11 351 349 6 12 1 350
187 210 221 238 229 193 264 217 177 255 234 116 213 137 120 121 119 103 119 114 113 113 117 136 139 144 93 89 88 87 71 60 351 4 16 34 37 11 4 15 20 6 354 346
215 194 218 224 253 235 257 336 14 135 195 282 57 75 131 161 167 103 85 88 97 108 119 150 126 106 111 114 92 100 113 109 87 54 299 359 38 34 337 24 17 4 356 345
228 188 206 228 209 90 125 292 38 134 32 43 67 71 61 69 98 106 102 105 103 109 125 109 106 87 82 89 93 105 102 96 116 178 134 52 33 327 50 29 357 337 325 298
237 211 208 216 207 124 33 243 196 159 347 82 88 97 103 108 112 117 116 113 118 115 115 85 90 92 91 95 99 94 85 86 73 61 54 44 13 32 14 4 298 296 320 16
118 358 84 29 11 318 337 317 326 137 161 73 100 115 118 121 123 123 119 128 129 120 113 110 113 108 99 101 98 100 91 86 85 77 84 70 87 15 11 286 357 22 48 23
338 358 99 163 274 19 339 298 284 341 108 118 109 116 122 125 128 127 134 139 133 141 135 124 138 123 113 106 100 98 105 86 87 96 95 22 116 43 54 19 47 48 51 23
21 306 175 87 204 138 233 243 237 239 180 122 120 129 123 134 137 141 146 139 146 149 137 139 133 132 123 115 106 100 83 107 113 101 105 322 133 117 34 80 57 81 70 83
328 3 5 326 183 197 171 201 171 198 158 140 143 138 148 150 148 145 145 145 134 138 135 137 131 130 130 123 109 99 102 84 53 111 81 74 344 40 40 12 118 52 131 160